Zurück zum Katalog

FENGYUN 2C

AktivWetterGEO
NORAD 28451·PAYLOAD·🇨🇳 China

Gestartet Oct 19, 2004 von Xichang Satellite Launch Center

Loading…

TLE

AktuellSource: Space-Track

Epoche: Sep 14, 2026, 07:30 UTC

1 28451U 04042A   26257.31277781 -.00000120  00000-0  00000-0 0  9992
2 28451  12.5771  30.4896 0002768 355.3202 195.2303  0.98083028 42049

Verfolge FENGYUN 2C in Echtzeit mit AllMySat

Download on the App Store